| time (UTC) | temp F | wind direction | speed knots | gust knots | rain 1hr in | rain 24hr in | rain mn in | humidity % | barometer mb |
| 20260504050020 | 46 | 196 | 0.0 | 0.0 | 0.00 | 0.00 | 0.00 | 61 | 1015.2 |
| 20260504044523 | 46 | 196 | 0.0 | 0.0 | 0.00 | 0.00 | 0.00 | 61 | 1015.2 |
| 20260504043035 | 46 | 196 | 0.0 | 0.0 | 0.00 | 0.00 | 0.00 | 62 | 1015.1 |
| 20260504041509 | 46 | 196 | 0.0 | 0.0 | 0.00 | 0.00 | 0.00 | 62 | 1015.1 |
| 20260504040013 | 46 | 196 | 0.0 | 0.0 | 0.00 | 0.00 | 0.00 | 60 | 1015.0 |
| 20260504034507 | 47 | 200 | 0.0 | 0.9 | 0.00 | 0.00 | 0.00 | 60 | 1014.9 |
| 20260504033024 | 47 | 187 | 0.0 | 0.9 | 0.00 | 0.00 | 0.00 | 58 | 1014.9 |
| 20260504031523 | 47 | 212 | 0.0 | 0.9 | 0.00 | 0.00 | 0.00 | 57 | 1014.7 |
| 20260504030015 | 48 | 225 | 0.0 | 0.0 | 0.00 | 0.00 | 0.00 | 57 | 1014.7 |
| 20260504024517 | 48 | 225 | 0.0 | 0.0 | 0.00 | 0.00 | 0.00 | 56 | 1014.8 |
| 20260504023014 | 49 | 225 | 0.0 | 0.0 | 0.00 | 0.00 | 0.00 | 53 | 1014.6 |
| 20260504021510 | 49 | 228 | 0.0 | 0.0 | 0.00 | 0.00 | 0.00 | 53 | 1014.7 |
| 20260504020014 | 50 | 228 | 0.0 | 0.0 | 0.00 | 0.00 | 0.00 | 52 | 1014.7 |
| 20260504014519 | 51 | 228 | 0.0 | 0.0 | 0.00 | 0.00 | 0.00 | 51 | 1014.6 |
| 20260504013031 | 51 | 228 | 0.0 | 0.0 | 0.00 | 0.00 | 0.00 | 48 | 1014.5 |
| 20260504011523 | 52 | 228 | 0.0 | 0.0 | 0.00 | 0.00 | 0.00 | 48 | 1014.4 |
| 20260504010019 | 52 | 228 | 0.0 | 0.0 | 0.00 | 0.00 | 0.00 | 49 | 1014.3 |
| 20260504004514 | 52 | 228 | 0.0 | 0.9 | 0.00 | 0.00 | 0.00 | 47 | 1014.2 |
| 20260504003016 | 53 | 232 | 0.0 | 0.9 | 0.00 | 0.00 | 0.00 | 46 | 1014.0 |
| 20260504001519 | 53 | 219 | 0.0 | 0.9 | 0.00 | 0.00 | 0.00 | 46 | 1013.8 |
| 20260504000015 | 54 | 211 | 0.0 | 0.9 | 0.00 | 0.00 | 0.00 | 45 | 1013.8 |
| 20260503234523 | 55 | 242 | 0.0 | 1.7 | 0.00 | 0.00 | 0.00 | 42 | 1013.7 |
| 20260503233021 | 57 | 249 | 0.0 | 6.1 | 0.00 | 0.00 | 0.00 | 41 | 1013.4 |
| 20260503231519 | 57 | 246 | 0.9 | 8.7 | 0.00 | 0.00 | 0.00 | 40 | 1013.5 |
| 20260503230021 | 57 | 255 | 1.7 | 7.8 | 0.00 | 0.00 | 0.00 | 41 | 1013.5 |
| 20260503224504 | 58 | 263 | 0.9 | 11.3 | 0.00 | 0.00 | 0.00 | 40 | 1013.6 |
| 20260503223009 | 58 | 280 | 5.2 | 10.4 | 0.00 | 0.00 | 0.00 | 38 | 1013.4 |
| 20260503221508 | 58 | 268 | 3.5 | 14.8 | 0.00 | 0.00 | 0.00 | 38 | 1013.5 |
| 20260503220004 | 58 | 251 | 3.5 | 8.7 | 0.00 | 0.00 | 0.00 | 37 | 1013.5 |
| 20260503214503 | 58 | 235 | 2.6 | 12.2 | 0.00 | 0.00 | 0.00 | 38 | 1013.4 |
| 20260503213007 | 58 | 251 | 7.0 | 20.0 | 0.00 | 0.00 | 0.00 | 38 | 1013.4 |
| 20260503211508 | 58 | 247 | 7.8 | 12.2 | 0.00 | 0.00 | 0.00 | 36 | 1013.4 |
| 20260503210005 | 57 | 261 | 4.3 | 15.6 | 0.00 | 0.00 | 0.00 | 38 | 1013.4 |
| 20260503204504 | 58 | 287 | 9.6 | 16.5 | 0.00 | 0.00 | 0.00 | 35 | 1013.4 |
| 20260503203013 | 58 | 273 | 7.8 | 15.6 | 0.00 | 0.00 | 0.00 | 37 | 1013.3 |
| 20260503201507 | 57 | 298 | 5.2 | 12.2 | 0.00 | 0.00 | 0.00 | 36 | 1013.6 |
| 20260503200013 | 57 | 250 | 3.5 | 12.2 | 0.00 | 0.00 | 0.00 | 36 | 1013.7 |
| 20260503194531 | 57 | 281 | 8.7 | 17.4 | 0.00 | 0.00 | 0.00 | 37 | 1013.9 |
| 20260503193009 | 56 | 255 | 9.6 | 16.5 | 0.00 | 0.00 | 0.00 | 37 | 1014.3 |
| 20260503191508 | 57 | 277 | 11.3 | 20.0 | 0.00 | 0.00 | 0.00 | 39 | 1014.3 |
| 20260503190006 | 57 | 274 | 10.4 | 17.4 | 0.00 | 0.00 | 0.00 | 38 | 1014.4 |
| 20260503184522 | 57 | 270 | 9.6 | 18.2 | 0.00 | 0.00 | 0.00 | 40 | 1014.5 |
| 20260503183021 | 56 | 281 | 10.4 | 18.2 | 0.00 | 0.00 | 0.00 | 41 | 1014.6 |
| 20260503181518 | 55 | 240 | 7.0 | 14.8 | 0.00 | 0.00 | 0.00 | 40 | 1014.7 |
| 20260503180020 | 53 | 240 | 5.2 | 16.5 | 0.00 | 0.00 | 0.00 | 47 | 1014.7 |
| 20260503174508 | 53 | 277 | 6.1 | 13.0 | 0.00 | 0.00 | 0.00 | 41 | 1014.7 |
| 20260503173008 | 53 | 281 | 7.0 | 20.0 | 0.00 | 0.00 | 0.00 | 43 | 1015.0 |
| 20260503171506 | 54 | 294 | 10.4 | 17.4 | 0.00 | 0.00 | 0.00 | 41 | 1015.0 |
| 20260503081525 | 41 | 273 | 6.1 | 8.7 | 0.00 | 0.00 | 0.00 | 72 | 1012.9 |